Wind_Speed
32 34 33 30 29 27 27 26 25 26 26 26 26 25 25 25 25 25 23 23 23 23 23 23 24 24 23 23 24 23 21 20 19 17 15 13 13 12 13 13 13 13 14 16 17 16 15 14 13 12 10 9 10 12 13 14 14 13 11 10 9 8 9 9 9 9 8 4 1 3 2 1 3 2 1 3 3 3 3 3 4 5 5 5 4
29 33 33 31 30 29 28 28 27 27 26 26 26 25 24 24 25 24 23 23 24 24 23 23 23 23 23 22 22 21 20 20 19 16 14 13 13 13 13 13 13 12 12 13 14 14 14 12 10 9 8 9 10 11 12 12 12 10 9 8 7 7 7 7 8 7 5 3 2 2 1 1 2 2 2 3 2 3 3 4 4 4 5 5 5
28 32 33 33 33 31 31 30 29 28 27 27 26 24 23 24 24 24 24 24 24 24 24 23 22 22 21 20 19 18 18 18 17 16 15 15 15 15 15 13 12 11 10 9 10 10 10 10 10 9 9 10 10 9 8 7 7 7 7 7 6 6 5 5 6 4 3 3 2 2 2 2 3 2 2 2 0 1 2 3 4 4 4 5 5
30 32 32 34 34 33 34 33 32 31 30 29 27 26 25 25 25 25 25 25 24 24 23 22 21 20 20 19 18 17 17 16 16 16 16 17 17 17 15 13 11 10 9 8 8 8 9 11 11 10 11 10 8 8 6 5 5 6 6 6 6 5 4 4 4 4 3 3 2 1 0 2 3 2 1 1 1 2 2 3 4 4 4 4 4
32 32 32 33 34 35 34 33 33 33 32 31 29 28 27 26 25 25 25 25 25 24 22 20 20 20 20 20 19 19 19 18 18 18 18 18 17 16 14 12 11 10 9 8 8 9 10 11 11 11 10 8 7 6 5 5 6 6 6 6 6 6 5 5 4 4 5 4 4 3 2 2 2 1 2 2 1 1 1 2 3 3 4 4 4
33 33 32 33 33 33 34 34 34 34 33 31 30 28 27 26 25 25 25 26 25 24 22 21 21 22 22 21 21 21 21 21 20 19 17 16 15 14 13 12 11 10 9 9 9 10 10 11 10 10 9 6 6 6 6 6 6 6 7 7 7 7 7 6 5 4 5 5 5 4 4 4 3 2 1 2 2 2 0 2 2 2 3 4 5
34 34 33 33 33 32 33 34 35 34 33 31 30 29 27 26 26 25 26 26 25 24 23 22 23 23 23 22 22 21 21 21 19 17 16 15 14 14 13 12 12 11 11 11 11 11 12 11 11 11 9 6 7 8 8 8 8 8 8 8 7 8 7 6 6 5 5 5 4 4 5 5 5 3 2 2 2 2 1 1 2 3 4 5 6
37 37 36 35 34 33 33 34 34 34 32 31 31 29 28 27 26 26 26 27 26 24 24 24 25 25 25 24 23 22 22 21 18 16 16 16 15 15 15 14 14 13 13 13 13 13 13 13 13 12 9 7 8 8 9 9 9 9 9 9 9 8 7 6 6 6 5 4 3 4 4 5 5 3 3 3 2 2 2 1 3 4 4 6 7
40 40 39 37 37 36 35 34 34 33 33 32 31 29 28 27 27 27 28 28 27 26 26 26 26 27 27 26 25 24 23 21 19 18 18 18 17 16 16 16 16 15 15 14 14 14 14 14 13 11 9 8 8 8 8 8 9 9 9 9 8 7 6 6 5 5 4 3 4 4 5 5 4 3 3 3 3 4 4 5 7 6 6 7 8
42 41 40 39 38 37 36 36 35 34 34 33 31 29 28 28 28 28 29 29 28 28 28 28 28 28 28 28 27 26 24 23 21 20 19 19 19 18 17 17 17 17 16 16 15 15 14 13 13 12 10 9 8 8 8 9 9 8 8 7 6 6 6 5 5 4 3 4 5 5 4 4 4 4 3 3 3 4 5 7 9 9 9 9 9
43 42 42 41 39 38 38 37 36 36 35 33 32 32 31 30 30 29 30 30 30 30 30 30 29 29 30 29 28 27 26 24 23 22 21 21 20 19 19 19 19 18 17 16 16 15 14 13 13 13 11 10 8 8 9 9 9 8 7 7 6 5 5 5 5 4 4 5 5 5 4 4 4 4 4 4 4 5 7 8 9 10 12 12 11
42 43 43 42 41 40 40 39 38 38 37 36 35 34 33 32 32 31 31 31 31 31 31 31 31 30 31 30 29 28 27 26 25 24 23 22 21 20 20 20 20 19 17 16 16 15 14 13 14 13 12 10 9 9 9 9 9 8 7 6 6 5 5 6 5 5 5 5 5 5 5 5 5 5 6 6 6 7 8 9 10 13 15 15 15
41 44 45 44 43 42 41 41 40 40 39 38 37 35 35 34 33 33 33 32 32 32 33 33 32 32 32 31 30 29 28 28 27 26 24 23 21 20 21 21 20 19 18 17 16 15 14 14 13 13 12 11 11 10 9 8 8 7 7 7 7 7 6 6 6 5 5 6 6 6 6 6 7 7 8 8 9 9 10 10 11 13 15 17 18
41 45 46 46 46 44 42 41 41 41 39 38 38 37 36 35 35 35 35 34 33 33 34 34 34 34 33 33 31 31 30 29 29 27 26 23 21 21 21 20 20 19 18 16 15 14 14 13 11 11 11 11 11 9 8 8 7 7 7 8 9 9 9 8 7 7 7 7 7 7 7 7 8 9 10 10 10 11 11 11 12 13 15 17 19
39 46 47 47 48 45 43 42 41 41 39 39 39 38 38 36 36 37 36 35 35 35 35 35 36 35 35 34 33 33 32 30 29 28 26 23 21 21 21 20 19 18 17 15 14 14 14 12 10 11 11 11 10 9 9 8 8 8 9 10 11 11 11 10 9 9 9 8 8 8 8 9 9 10 11 12 12 12 11 11 11 13 14 16 18
39 46 49 49 49 47 46 44 42 41 40 40 40 39 39 38 37 38 37 37 36 36 36 37 37 37 36 36 35 34 33 31 31 29 26 24 22 21 20 19 19 17 16 15 15 15 13 12 10 10 11 11 10 10 10 9 9 10 10 11 12 13 13 12 12 11 10 10 10 10 10 11 11 11 12 13 13 13 13 13 13 13 14 15 16
42 48 51 51 50 49 49 47 45 43 42 41 40 39 39 39 39 39 38 38 38 37 38 38 38 38 38 38 37 36 34 33 32 30 27 24 22 21 20 19 18 17 16 16 16 15 14 13 11 11 12 11 10 11 11 11 11 11 12 12 13 14 15 15 15 14 13 12 12 12 12 12 11 12 12 13 14 15 15 16 17 15 13 14 16
46 49 52 53 52 51 50 49 47 45 42 41 40 39 39 39 39 39 39 39 39 39 39 39 39 40 40 40 39 37 36 35 33 30 27 25 24 22 21 20 19 18 17 17 17 16 16 14 12 12 13 12 12 12 13 12 12 12 12 13 13 15 16 17 16 16 15 14 13 13 13 12 11 12 12 13 14 16 16 17 18 16 13 14 15
44 47 50 52 53 53 52 50 48 46 44 42 40 39 39 40 40 40 40 40 40 41 41 41 41 42 42 41 39 38 37 36 34 30 28 27 25 23 22 21 20 19 19 19 18 18 17 16 14 14 14 14 14 14 15 14 13 13 13 13 14 14 16 17 17 16 15 14 14 14 14 13 13 13 13 14 15 16 16 16 16 14 14 15 16
43 45 48 51 53 53 53 51 49 47 45 42 41 41 40 40 41 42 42 42 42 42 43 43 43 44 43 41 40 39 38 37 35 32 30 28 25 23 21 21 20 20 20 20 20 19 19 17 16 16 16 16 16 16 16 15 14 14 14 14 14 14 15 16 15 15 15 15 15 15 15 14 14 14 13 13 13 13 14 14 14 14 15 16 16
41 43 47 49 50 51 51 50 49 47 45 43 43 43 41 41 42 43 44 44 44 44 44 44 44 44 43 42 41 41 40 39 37 34 32 29 25 22 20 19 20 21 21 21 21 21 20 19 18 17 18 18 18 17 17 16 14 14 14 14 13 13 14 14 13 13 13 14 15 15 15 14 13 13 12 12 12 12 13 14 14 15 15 16 16
40 43 45 47 48 49 49 49 48 48 48 47 45 44 43 43 43 43 44 45 45 45 45 45 46 45 44 44 43 43 42 40 39 36 33 30 27 23 21 21 22 22 21 22 22 22 20 20 19 19 19 20 20 19 18 16 15 14 13 13 13 12 12 12 12 13 13 14 14 15 14 13 12 12 12 12 13 13 14 15 15 15 16 16 17
39 41 43 44 46 46 46 47 47 47 48 48 46 45 44 44 44 44 45 46 45 45 45 46 46 45 45 45 45 44 43 41 39 37 35 33 29 25 24 24 23 22 22 23 24 23 22 21 20 20 21 21 22 21 18 16 15 15 14 13 12 12 12 12 13 13 13 13 14 14 12 11 11 12 13 14 14 15 15 16 16 17 18 18 17
37 40 41 41 43 44 44 45 45 45 46 47 47 47 45 45 45 45 46 45 45 45 46 46 46 46 45 46 46 45 42 39 38 38 38 35 31 27 26 25 23 21 22 25 26 24 23 22 21 22 22 23 23 21 17 16 16 15 15 14 12 12 12 13 14 13 13 12 12 13 11 10 12 14 15 16 16 16 17 17 18 18 19 20 19
36 38 39 40 41 41 42 42 43 43 44 45 47 48 47 47 46 46 46 46 45 45 46 47 46 46 47 47 47 44 41 40 41 42 42 37 32 30 27 24 23 22 22 25 27 26 24 23 23 23 24 24 23 20 17 16 16 16 15 14 13 13 13 13 13 13 13 13 13 12 12 12 14 16 17 18 18 19 19 20 20 21 21 22 22
35 37 38 39 39 39 39 40 40 41 41 42 44 46 47 48 47 47 46 46 46 46 47 48 46 47 48 47 45 45 44 45 46 46 44 39 34 32 28 25 24 23 23 26 28 27 24 24 24 24 24 24 22 19 17 16 16 16 16 16 15 14 14 13 13 13 13 13 13 13 14 15 16 18 19 20 20 21 21 22 23 23 24 24 25
34 36 36 36 37 38 37 38 38 38 39 38 40 42 45 46 46 47 46 46 47 47 48 49 48 48 48 47 48 51 51 50 51 51 48 43 39 35 32 29 28 27 27 27 28 27 25 24 25 25 25 24 21 19 18 17 16 17 17 17 16 15 14 14 13 13 14 14 15 15 16 17 18 20 21 22 22 22 23 24 25 26 26 27 27
32 35 35 35 37 37 37 37 36 36 36 36 37 39 41 42 43 44 46 46 47 48 48 48 48 46 47 49 53 56 54 54 55 54 50 47 42 38 35 33 31 31 31 30 28 26 25 24 25 26 25 23 21 20 19 18 17 18 18 18 18 17 16 14 14 14 15 16 17 17 18 19 20 21 22 22 23 23 24 24 25 26 26 26 27
34 36 36 36 36 36 36 35 34 35 35 34 36 38 38 39 39 40 43 44 46 47 47 46 44 44 47 50 53 54 53 52 53 52 49 47 42 38 37 37 36 34 33 33 29 25 23 25 26 26 25 23 22 22 20 19 18 18 19 19 19 18 16 15 15 16 16 17 18 18 19 20 21 22 22 22 22 23 23 24 24 24 25 25 25
36 37 37 37 35 35 34 34 33 33 32 32 33 34 34 34 35 38 40 42 43 45 43 41 41 43 45 47 48 49 49 48 48 50 50 47 42 38 39 41 41 38 36 37 32 24 22 25 26 26 26 24 23 22 20 19 18 18 19 19 19 19 17 17 17 17 17 18 18 19 20 21 23 24 23 23 22 23 23 23 24 23 23 24 25
38 38 38 36 34 34 34 33 32 30 29 29 29 29 31 33 35 37 38 37 38 39 38 38 39 41 42 43 44 46 47 47 45 46 48 48 46 45 45 44 44 43 41 39 34 26 23 24 25 26 26 24 24 23 21 20 19 18 18 19 20 19 19 18 18 19 19 19 20 20 22 24 25 25 24 23 22 23 23 24 24 23 22 23 25
37 39 39 36 34 34 33 31 30 29 28 28 28 30 32 33 33 31 30 31 32 33 33 34 36 39 40 40 42 43 44 42 37 36 41 45 49 51 52 50 48 46 45 42 36 28 23 22 23 25 26 25 25 24 22 21 20 19 19 20 21 20 20 20 20 20 21 23 24 24 25 27 26 24 24 23 23 23 23 24 24 23 23 24 25
40 41 40 37 35 33 31 30 28 27 28 29 29 30 28 24 22 21 21 24 25 26 28 30 32 35 36 37 39 38 38 38 34 33 37 44 49 52 53 54 51 46 43 39 35 30 24 20 23 26 27 27 27 25 24 23 22 21 21 21 22 21 20 20 21 23 24 27 29 29 29 28 26 24 23 22 23 24 24 23 23 23 24 24 25
37 38 38 37 35 33 31 29 28 29 29 27 23 19 15 13 14 14 16 18 19 20 22 24 27 30 32 34 35 36 36 37 38 38 38 41 47 51 53 54 51 45 39 33 31 32 26 20 24 29 28 28 28 27 26 25 23 22 22 23 23 22 22 22 23 25 26 28 30 30 27 24 22 22 22 22 24 24 23 23 23 24 25 25 25
28 31 35 36 35 34 32 31 30 28 23 17 12 10 10 10 11 11 11 12 13 14 15 17 21 24 27 30 32 34 36 36 37 39 37 37 42 49 54 53 47 42 38 32 29 30 27 23 28 31 28 29 30 29 27 26 24 23 22 23 24 23 24 25 25 26 26 26 27 25 21 19 20 21 22 23 24 24 23 23 24 25 24 24 26
23 23 30 34 34 32 30 27 23 18 13 12 13 13 12 11 10 8 7 6 6 7 9 11 15 19 21 25 28 31 33 34 35 37 37 36 39 44 51 51 42 36 37 32 27 28 29 28 30 30 30 32 32 29 28 26 24 23 23 24 25 26 27 27 26 26 26 25 24 22 19 20 21 21 22 23 24 23 23 24 24 24 23 24 26
19 18 22 25 24 21 18 16 15 16 18 18 17 15 13 11 8 6 5 4 4 4 5 6 9 13 16 19 23 26 29 31 33 34 34 35 38 43 50 50 42 38 40 36 29 30 33 31 30 32 34 33 30 28 27 26 26 26 25 25 27 28 28 28 28 28 26 23 22 20 20 22 22 23 23 23 23 23 23 24 23 23 23 25 25
15 15 16 17 15 15 17 20 22 22 21 18 16 14 11 9 7 6 5 4 3 2 1 3 6 9 12 15 19 22 25 27 29 31 32 33 36 41 45 46 44 42 41 37 33 36 38 35 33 35 33 31 29 28 28 29 30 29 27 27 28 28 27 28 29 26 22 21 21 20 21 23 23 24 24 23 23 23 23 23 23 23 24 24 22
13 15 18 20 21 25 27 26 24 21 18 16 14 12 10 9 9 8 6 5 3 2 1 2 5 7 10 13 16 19 21 24 26 28 28 30 33 36 36 38 40 38 36 36 37 39 40 35 32 31 31 30 29 28 29 31 31 28 27 28 29 28 27 28 27 23 20 19 20 21 22 24 25 25 24 23 23 22 21 21 22 22 23 22 19
19 22 25 28 29 30 28 25 22 19 17 15 13 12 11 11 10 9 8 6 4 3 2 2 4 6 9 11 13 16 19 23 24 25 26 28 32 33 33 34 34 33 32 34 36 36 34 30 28 29 30 29 28 28 29 29 27 26 27 28 29 28 27 26 23 19 18 19 21 22 25 26 25 25 24 23 22 21 21 21 21 21 22 21 20
22 24 27 29 29 27 24 21 19 17 15 14 12 10 10 10 10 10 9 6 3 2 1 2 4 6 7 8 10 14 18 20 21 21 24 26 27 29 30 32 33 32 31 33 33 31 28 26 25 26 27 26 27 29 28 25 24 25 26 28 29 27 23 19 18 17 18 20 22 25 27 26 25 23 22 22 21 20 20 20 20 21 21 21 21
25 24 24 25 24 22 19 16 13 11 12 11 9 7 6 7 9 8 5 3 1 1 1 3 4 5 5 5 8 12 14 16 17 19 21 21 21 24 29 33 33 31 30 31 31 27 23 23 22 23 23 23 24 25 24 22 21 22 23 25 25 21 16 15 17 19 21 23 25 26 27 26 24 22 22 21 21 20 20 20 20 20 20 19 19
29 26 23 22 21 19 16 15 12 10 9 8 6 4 2 2 4 4 3 3 2 1 3 4 4 4 3 4 7 9 10 11 14 17 19 19 20 25 30 30 29 30 30 29 24 20 19 20 20 20 21 22 21 19 19 19 19 19 19 19 18 16 14 16 19 22 24 25 25 26 25 24 23 22 22 21 20 20 19 19 19 19 18 17 18
29 27 24 22 21 20 17 16 14 11 9 7 6 4 3 2 1 3 4 2 1 3 4 4 4 3 3 4 5 6 7 9 11 14 18 20 24 29 31 29 27 28 27 23 18 18 19 20 18 17 18 18 17 16 17 19 18 16 15 16 15 15 15 18 21 23 24 24 24 24 24 23 22 22 21 19 19 19 18 18 18 17 17 17 18
26 24 21 20 20 18 16 14 12 11 11 11 9 7 6 5 3 2 2 1 2 3 3 3 3 3 3 4 5 6 7 8 10 14 17 20 24 26 26 26 26 24 21 18 17 18 18 17 15 14 14 15 16 16 17 17 15 14 14 14 14 15 17 20 22 23 23 22 22 23 23 22 21 19 18 18 18 18 18 17 17 17 17 18 18
21 20 18 16 16 15 13 12 11 11 10 9 9 7 6 5 2 2 2 2 3 3 2 1 3 3 3 5 7 8 8 8 11 14 15 19 23 23 21 23 23 20 17 16 15 14 14 13 13 14 14 15 15 15 15 14 13 14 14 14 14 16 19 20 21 21 21 20 21 21 21 20 18 17 17 17 17 17 17 17 16 17 17 18 18
14 14 12 10 9 8 8 9 8 6 3 4 5 4 5 6 5 6 6 4 2 2 1 3 4 4 4 6 8 9 10 11 13 14 14 16 21 22 21 21 20 18 17 16 14 14 14 14 14 15 14 12 12 14 15 14 13 13 13 13 15 16 17 19 19 19 19 19 19 19 18 17 16 16 16 15 15 15 15 16 16 17 17 17 18
8 7 7 7 6 5 6 6 4 3 7 8 8 8 10 10 9 10 9 6 4 3 4 5 5 4 4 7 9 10 12 14 16 16 15 15 17 20 20 20 20 19 17 16 14 14 14 14 13 12 11 11 12 14 15 14 13 13 12 13 14 15 16 17 18 18 17 17 18 17 17 16 16 14 13 13 14 14 14 15 15 16 16 17 17
6 5 6 7 7 6 5 4 2 4 7 8 8 8 10 11 11 10 8 5 6 6 6 5 5 4 5 7 9 11 14 16 18 19 17 13 14 18 19 19 19 19 17 15 12 11 11 10 9 8 9 11 12 14 14 13 12 12 12 13 14 15 16 17 17 17 16 16 17 16 15 14 12 10 9 10 12 14 13 14 14 14 15 16 17
5 6 6 6 6 5 5 4 3 3 4 5 6 8 10 10 9 8 7 8 8 7 6 5 5 5 5 6 8 11 15 17 19 20 17 14 14 17 20 20 20 18 16 14 10 9 9 8 8 9 10 11 13 14 13 12 12 12 13 14 15 15 15 15 15 15 14 14 15 13 11 9 8 7 7 8 10 12 12 12 13 14 15 16 17
2 3 4 3 4 5 6 6 6 6 5 5 6 8 9 9 9 10 10 10 9 7 7 7 7 6 6 6 8 10 13 17 19 19 17 15 16 20 22 20 17 13 12 10 9 9 10 10 11 11 12 13 14 14 13 13 13 13 14 15 15 14 13 13 13 13 12 12 11 8 7 7 7 7 8 9 10 10 11 11 12 13 15 17 18
Wind_Direction
216 218 216 215 218 220 221 221 220 217 215 216 217 217 217 218 221 223 223 220 219 220 221 223 225 228 229 230 233 238 242 246 248 249 250 255 256 256 252 249 253 253 253 257 259 258 256 258 259 255 247 250 267 279 284 283 278 273 272 278 283 288 294 300 305 308 311 321 353 333 323 245 243 227 268 316 323 309 310 319 321 324 326 327 324
215 219 217 217 219 220 222 221 220 218 214 214 216 218 219 220 222 224 224 222 221 221 222 224 226 229 231 232 235 240 244 247 250 252 254 258 259 258 255 251 254 259 262 262 260 259 257 252 242 230 238 268 284 288 286 279 270 266 269 274 279 285 291 296 301 305 306 315 57 68 80 171 224 245 293 302 306 323 333 336 336 338 333 332 333
214 220 218 218 219 219 221 220 220 219 217 216 216 218 220 222 223 223 224 225 225 224 223 225 227 229 232 236 239 242 245 246 248 251 252 252 251 251 253 255 259 260 263 262 256 250 238 224 216 225 258 282 290 290 288 278 269 267 267 271 280 286 290 288 288 289 296 314 18 83 128 183 220 253 300 288 288 20 2 349 350 359 353 347 347
216 220 219 220 220 220 220 220 221 221 221 221 219 219 219 221 222 222 223 225 227 226 224 226 228 229 232 237 240 241 243 244 247 248 247 245 246 251 257 262 262 259 260 258 248 235 219 213 221 246 272 284 291 294 289 280 274 272 270 274 280 282 281 271 269 272 277 289 313 343 326 185 200 223 248 210 122 74 38 6 3 11 9 0 357
220 221 220 222 222 221 221 221 222 223 224 223 221 220 220 220 222 222 224 226 227 226 225 226 227 228 230 233 236 238 240 241 242 242 243 245 248 257 263 263 260 257 257 251 239 229 221 224 238 260 277 282 286 286 276 270 271 271 273 276 277 276 276 274 271 268 268 269 268 280 277 201 209 244 210 201 179 132 55 13 15 21 15 359 359
225 225 224 224 224 223 223 223 224 225 225 224 223 222 222 222 223 225 226 227 228 227 225 225 227 228 228 229 231 233 236 238 239 241 246 251 256 262 262 259 258 255 255 248 239 234 232 239 252 266 274 269 266 264 258 261 267 271 274 276 278 276 277 281 280 273 274 276 266 256 248 240 258 273 228 235 241 214 225 17 7 0 0 350 350
226 228 227 226 225 224 224 224 224 225 224 224 225 224 225 225 225 227 229 230 230 226 224 225 227 229 230 231 232 234 236 238 241 244 249 254 256 257 254 254 257 256 254 250 246 244 245 250 257 262 263 254 249 248 247 252 257 263 268 271 273 273 278 282 282 285 286 281 268 254 248 247 257 262 252 274 268 247 261 37 358 339 339 342 344
225 227 227 226 225 223 223 223 222 222 223 224 225 225 226 226 226 228 231 232 231 226 224 226 227 228 230 231 232 234 237 240 243 245 248 251 252 253 251 252 255 254 253 250 246 246 247 250 253 258 260 250 244 242 241 241 244 250 257 262 267 268 273 275 278 288 286 272 255 240 236 234 241 255 270 290 310 318 314 338 345 341 344 345 348
227 228 228 226 225 224 223 223 222 222 224 225 225 225 227 228 228 228 231 233 231 227 225 226 228 229 230 232 232 233 234 237 239 240 245 250 251 253 252 253 253 253 252 249 245 246 247 250 256 261 259 248 241 238 235 235 237 243 248 255 262 266 270 269 273 283 274 255 241 231 229 232 243 262 277 291 316 323 321 329 333 337 345 346 349
228 230 231 229 227 226 225 226 226 225 226 226 226 226 227 228 228 228 230 231 229 226 225 227 229 230 230 231 231 232 232 233 235 236 240 246 250 251 252 253 253 252 251 248 246 245 247 253 261 263 257 246 237 232 232 233 234 236 241 248 251 256 264 264 262 266 255 241 237 234 240 258 274 288 297 303 314 317 318 325 330 333 336 339 344
227 228 231 233 231 230 229 229 229 228 228 228 228 228 228 228 228 228 229 230 228 226 225 227 228 230 230 230 230 231 231 231 234 236 238 242 248 250 251 252 251 251 250 247 245 245 248 255 261 260 255 247 240 236 236 235 235 237 240 241 240 245 251 251 250 248 242 238 236 241 255 272 285 297 305 306 307 310 314 322 326 325 326 329 334
226 227 229 231 231 230 230 230 230 229 229 229 229 229 228 228 228 228 228 228 227 226 225 227 228 229 230 231 231 231 231 232 235 238 239 242 248 250 250 250 248 248 245 243 243 244 248 254 257 256 252 246 242 242 240 235 236 239 238 236 237 240 236 235 237 236 236 238 242 250 262 274 285 293 296 297 299 300 308 319 322 322 323 324 325
223 226 228 228 229 229 230 230 229 229 229 229 229 229 228 228 227 227 228 228 227 226 226 227 228 229 230 231 232 231 232 232 234 238 240 243 248 249 249 248 247 247 245 244 245 247 250 253 255 252 247 244 243 242 238 235 238 238 236 237 238 237 232 229 232 235 235 236 244 250 254 265 277 286 291 292 293 298 307 317 317 315 315 314 316
221 225 226 226 228 229 229 230 230 228 228 228 228 228 228 228 227 227 228 228 228 227 227 228 228 229 230 231 232 232 231 231 233 236 238 242 247 248 250 250 249 249 249 250 251 251 251 250 249 246 241 239 240 239 236 237 241 239 236 235 235 236 236 234 235 240 243 245 250 254 257 263 270 277 285 287 289 295 303 309 309 309 309 308 309
220 224 225 227 229 228 228 229 229 229 228 227 228 228 228 228 227 227 227 227 228 228 228 228 229 230 230 231 231 231 231 232 233 234 236 240 244 247 249 250 250 251 252 253 253 250 249 245 240 236 232 231 233 236 238 239 242 241 238 235 235 240 241 242 247 248 250 256 260 264 267 270 274 277 280 281 283 287 291 295 298 302 302 301 303
217 223 225 228 229 229 228 228 228 229 228 228 227 227 227 227 227 226 226 227 228 228 228 229 230 231 231 231 230 230 230 231 232 232 233 236 240 244 248 250 250 252 252 251 250 247 243 239 237 232 225 224 231 238 239 240 242 242 239 238 241 246 246 248 255 257 259 265 269 272 274 276 281 283 282 282 283 286 287 290 292 293 294 294 296
216 221 224 226 228 229 229 228 228 228 228 228 227 226 226 226 226 226 227 227 228 229 229 230 231 232 233 231 230 229 229 230 231 231 232 234 237 241 245 248 248 248 248 248 248 244 240 237 236 231 225 223 230 237 238 240 240 241 242 243 247 253 254 256 260 264 267 271 275 276 277 280 285 287 287 287 288 289 291 291 289 287 288 289 291
219 222 223 225 226 226 227 228 228 227 226 227 226 225 225 226 227 228 228 227 228 229 229 230 231 232 233 231 230 229 229 230 230 230 231 234 236 238 241 243 243 243 244 246 246 242 240 240 237 231 227 226 230 234 235 235 235 239 243 247 250 254 259 262 264 267 269 272 273 273 276 280 283 284 286 285 285 286 288 292 290 286 284 284 286
219 220 221 224 225 225 225 226 227 227 226 226 226 226 226 228 229 230 230 229 229 230 230 230 231 232 232 231 231 230 230 230 229 229 231 233 236 239 242 243 242 241 243 245 245 242 242 243 240 234 230 229 231 232 232 231 233 238 241 244 248 251 256 260 263 266 268 269 269 270 275 279 280 283 285 285 284 284 285 291 293 289 285 285 287
217 218 221 223 223 224 224 224 226 227 227 226 226 226 227 229 230 230 231 231 231 232 232 232 232 232 232 232 232 232 232 232 230 229 231 233 235 239 244 246 243 243 245 246 246 246 247 247 243 236 233 233 233 232 233 233 236 240 241 241 243 248 254 258 260 262 263 264 267 271 274 277 281 285 288 288 289 288 287 287 289 290 288 287 289
217 219 221 222 221 222 223 224 225 226 228 227 226 226 226 228 230 230 231 231 231 232 232 233 233 234 234 233 233 232 232 233 232 232 233 235 236 239 246 250 249 247 249 250 250 248 247 247 243 236 233 234 235 234 235 237 241 245 244 242 244 248 253 255 256 259 261 265 270 273 275 279 282 285 288 291 291 292 291 289 288 288 288 288 290
219 220 221 221 220 220 221 223 224 225 227 228 227 227 226 226 229 230 231 232 233 233 233 234 235 235 235 235 234 233 233 234 234 234 235 236 236 237 240 244 248 250 252 253 253 250 247 245 240 234 232 234 234 235 236 239 245 248 247 245 247 249 249 250 254 260 266 270 273 275 278 280 282 283 289 295 296 296 293 291 291 290 291 291 291
221 220 220 220 219 219 220 222 223 224 225 227 228 228 227 227 228 229 231 233 233 234 235 236 236 237 237 237 237 237 236 236 237 238 239 237 235 234 235 238 242 247 252 254 252 249 247 245 239 234 232 233 234 233 236 241 247 250 249 247 247 247 247 252 258 263 267 269 271 275 278 279 282 288 295 299 299 298 295 293 292 292 293 294 294
219 218 218 219 219 219 220 222 223 223 225 226 228 229 230 229 229 230 232 233 234 236 237 238 239 239 239 239 240 240 238 238 239 241 241 239 237 236 237 238 240 244 249 252 251 248 246 243 238 235 233 231 232 233 236 243 248 250 250 248 245 246 249 254 260 262 263 265 269 274 276 278 284 293 300 301 299 298 296 295 295 294 295 297 298
216 215 216 218 219 220 221 222 223 223 224 226 228 230 230 231 232 232 233 234 235 237 239 240 240 241 242 243 242 240 238 237 238 240 240 239 237 238 239 239 240 243 249 252 250 246 243 239 236 235 234 231 231 233 237 243 250 252 251 248 246 247 252 256 259 261 261 263 267 271 275 279 288 294 298 299 297 296 295 294 294 295 295 296 297
214 214 215 217 219 221 221 221 222 223 223 225 227 230 231 233 234 235 236 237 238 238 240 241 241 242 244 243 240 238 237 235 235 238 239 238 236 237 238 239 241 243 246 250 251 246 240 238 237 234 232 232 232 234 238 242 249 252 251 250 249 249 253 257 261 262 263 264 265 270 277 282 287 293 297 298 298 297 296 296 296 296 296 295 295
213 213 214 215 218 220 220 220 222 223 224 225 227 230 232 234 236 237 238 240 241 242 243 243 243 243 242 240 239 241 240 234 231 233 235 234 234 235 232 232 237 240 238 241 247 247 241 237 237 235 232 232 233 236 238 242 246 250 252 253 252 251 253 257 260 262 262 263 266 270 277 283 287 292 296 299 300 299 299 299 299 299 297 295 294
213 213 213 215 217 218 219 220 221 222 225 226 227 230 233 235 237 239 240 242 245 246 246 246 245 242 240 241 243 246 244 236 231 230 233 234 232 232 231 229 232 235 234 235 240 242 242 239 236 235 234 234 236 238 239 242 246 250 254 255 254 253 254 256 259 261 262 263 266 272 278 284 289 292 296 300 301 301 300 301 302 300 299 297 295
211 212 214 216 217 218 219 220 221 223 225 226 228 230 233 236 239 240 242 243 246 247 248 248 245 243 244 246 248 248 248 244 233 228 233 238 233 232 233 231 231 233 232 234 235 231 234 240 238 236 236 235 237 239 241 243 248 252 255 257 256 253 253 256 259 261 264 266 270 277 282 288 292 295 298 302 304 304 301 301 301 300 299 298 297
212 212 213 215 218 219 220 220 221 223 225 227 229 231 233 236 238 240 242 242 244 248 250 248 247 247 249 250 251 252 252 248 235 223 227 236 237 238 239 234 232 233 231 231 230 225 228 237 238 238 238 238 239 242 244 246 250 254 257 257 254 252 252 256 259 262 266 270 274 279 285 290 293 296 300 305 306 305 303 301 300 299 298 297 296
214 214 213 214 217 219 220 221 222 223 224 227 230 232 235 236 236 239 242 244 246 251 252 250 248 250 251 251 253 253 254 252 238 220 219 228 232 235 241 238 232 232 231 226 223 221 227 233 235 238 241 242 244 245 248 251 253 255 257 254 251 252 254 257 261 265 268 271 275 280 284 286 289 294 299 303 304 304 302 300 298 298 298 297 295
215 216 214 213 215 218 220 221 221 223 225 228 230 232 233 234 238 244 249 251 253 255 256 253 250 250 252 253 254 257 257 251 233 210 213 226 229 229 235 236 231 229 230 225 220 220 224 229 233 239 243 246 248 250 251 254 254 254 255 252 250 253 257 262 268 272 275 278 278 276 276 279 283 290 296 298 301 302 299 297 297 298 300 299 295
215 216 214 211 212 216 218 219 222 224 225 227 230 233 237 241 248 254 255 255 257 259 259 256 252 252 254 257 257 256 252 246 237 227 225 227 228 228 231 232 229 227 226 222 217 215 219 225 230 235 242 248 252 253 253 255 255 253 252 251 252 255 261 266 273 277 281 284 283 280 280 280 282 288 293 296 299 300 298 295 295 298 300 299 296
219 219 215 212 212 215 217 218 221 223 225 230 233 237 243 245 246 248 248 251 256 259 259 258 255 255 257 258 257 253 251 253 254 251 241 230 228 228 228 228 227 224 220 216 212 212 217 224 225 228 239 247 248 250 253 255 257 255 252 251 253 257 263 268 273 278 281 284 285 287 288 285 283 286 291 295 297 298 297 295 296 299 299 298 297
225 222 217 213 213 215 217 217 220 224 227 229 222 211 209 209 214 222 230 240 249 254 258 260 257 257 258 258 257 255 257 260 260 256 249 241 235 230 224 223 222 217 212 209 210 214 218 221 219 223 233 240 241 248 254 256 256 255 252 251 254 257 263 268 273 279 284 284 284 285 284 282 283 286 290 294 295 296 296 296 298 299 298 297 297
234 229 223 219 215 216 219 220 221 217 198 179 171 170 174 179 184 190 200 217 233 245 253 256 256 257 259 259 260 260 259 260 260 257 253 248 241 231 224 222 218 212 209 208 209 213 215 218 220 221 225 231 238 249 254 252 253 255 253 252 255 260 264 269 274 281 284 283 282 282 282 283 285 288 290 293 294 294 296 298 298 298 297 298 298
241 237 230 226 220 215 211 203 187 167 156 154 156 157 160 162 161 157 157 175 200 222 238 247 253 258 261 262 264 264 263 262 261 260 259 255 244 229 222 220 216 211 212 212 212 211 210 214 220 219 220 228 239 247 247 247 252 256 256 257 261 265 269 272 278 282 281 278 278 280 282 284 286 289 292 293 293 294 297 298 297 297 299 300 299
228 218 210 208 198 176 161 156 152 151 152 154 154 153 149 143 139 136 137 147 155 171 213 251 258 261 267 269 268 268 269 268 264 261 259 252 236 221 215 214 213 213 214 216 217 214 208 209 214 217 221 233 242 244 245 252 256 255 256 261 264 266 271 277 282 282 277 275 277 279 281 285 288 291 293 293 294 296 297 296 296 298 301 300 299
191 181 171 165 157 149 145 146 147 150 155 156 154 150 146 145 147 149 151 155 159 166 193 255 268 272 274 272 272 274 271 265 260 257 252 239 224 215 212 211 213 216 217 217 215 210 205 206 213 220 226 235 240 242 248 256 259 256 257 263 264 266 274 281 282 279 275 275 278 280 284 287 289 291 292 293 294 295 294 295 298 300 300 299 298
153 151 148 146 145 145 146 149 150 151 155 156 153 153 157 161 163 171 180 185 188 195 219 262 277 283 281 277 278 276 266 258 256 257 252 237 222 216 216 215 212 210 210 209 205 203 205 213 222 226 230 238 247 253 257 259 259 257 260 262 264 269 278 280 275 272 274 279 282 285 287 288 289 290 292 293 293 293 294 297 299 299 298 297 296
133 139 143 143 143 145 147 148 150 154 156 155 154 159 171 181 189 196 201 204 205 201 239 282 294 296 293 290 282 269 259 257 259 259 250 233 219 215 215 211 205 203 202 201 201 204 213 225 232 234 239 250 261 268 272 268 262 262 263 263 266 273 277 272 268 273 280 283 286 287 287 287 288 289 291 291 291 293 296 299 300 298 296 295 297
110 118 126 129 131 134 136 134 135 143 152 156 159 167 186 208 219 221 215 208 203 200 251 286 302 305 298 284 272 264 258 255 256 252 238 220 209 210 209 205 202 201 199 199 204 212 224 234 241 245 252 261 265 270 273 267 259 263 266 266 269 274 272 269 274 282 285 286 286 285 284 285 287 288 288 289 291 295 299 300 299 297 296 298 302
104 104 107 109 107 106 106 105 104 109 124 138 147 151 166 236 243 226 193 173 186 241 277 290 294 292 282 266 261 258 252 247 246 238 224 209 202 201 200 200 202 201 198 201 211 227 241 247 251 253 256 261 268 274 271 263 261 265 266 264 266 267 269 277 283 286 286 285 283 282 282 284 285 286 287 288 292 297 300 298 297 297 301 305 308
102 102 106 108 103 95 90 89 89 88 89 89 86 79 67 61 158 177 169 172 243 277 287 292 283 265 249 245 247 240 232 235 231 217 209 210 207 200 197 200 202 200 200 209 225 240 248 250 250 249 250 259 273 277 269 264 265 264 257 255 258 266 276 284 285 284 283 281 280 280 281 282 283 284 286 290 295 298 297 296 299 303 308 312 312
92 95 100 106 106 101 97 93 87 82 79 75 66 56 52 56 79 143 169 225 291 300 304 292 257 233 222 222 223 217 215 221 215 202 203 209 205 196 196 202 201 198 206 222 236 241 241 240 242 245 252 266 277 275 265 261 255 247 246 253 264 275 284 285 283 282 280 278 278 277 278 279 281 284 289 293 296 296 297 300 306 310 312 313 313
87 87 88 94 101 104 104 102 96 91 82 60 39 30 24 16 357 259 254 291 306 313 318 252 206 195 193 203 208 206 201 204 208 208 211 213 206 196 194 197 197 202 215 225 229 227 223 224 235 247 259 269 273 266 256 245 235 236 248 263 274 281 285 284 283 282 279 277 276 275 276 279 283 287 292 294 295 297 301 306 310 311 312 312 312
87 84 84 88 93 102 118 128 125 116 83 2 352 339 314 309 282 247 245 252 260 275 235 184 182 173 178 195 203 203 198 198 202 201 196 199 201 199 197 197 202 208 211 206 203 204 209 222 240 253 261 261 255 245 235 226 227 241 257 270 279 285 287 286 284 281 278 276 275 274 276 280 285 290 291 291 294 299 304 308 309 310 310 310 311
82 86 97 104 104 117 149 164 186 254 265 270 274 269 271 272 252 235 235 228 204 182 165 166 161 151 176 195 201 205 204 201 197 188 180 183 191 194 199 204 205 204 200 196 200 210 222 235 246 252 253 248 239 228 220 220 233 249 265 277 286 290 289 286 282 280 277 275 275 277 280 284 287 289 288 290 297 301 304 306 306 307 308 309 311
90 109 128 133 136 148 171 192 253 268 250 251 255 245 243 246 236 228 222 192 156 145 147 151 145 153 186 202 206 210 212 208 198 190 190 200 202 198 199 200 197 197 202 208 216 227 232 235 235 232 237 241 234 221 218 228 244 257 273 286 291 291 287 282 279 277 275 275 277 280 284 285 285 285 284 290 299 303 305 306 305 304 307 310 314
111 135 143 137 127 126 140 148 148 173 206 234 238 224 223 226 214 194 171 145 130 128 135 140 142 158 182 201 210 214 217 215 209 206 212 228 221 201 193 191 192 200 214 224 230 227 215 211 217 225 229 228 222 220 226 239 252 265 280 289 291 288 283 277 275 274 274 275 278 279 278 277 276 276 277 281 289 298 303 303 302 304 308 311 314
106 143 151 141 124 126 141 159 174 189 204 221 227 218 212 200 176 155 141 128 117 114 124 132 139 148 164 187 203 212 215 213 214 220 229 233 216 195 188 191 200 216 230 233 227 217 209 212 224 229 228 222 221 227 236 245 255 270 282 288 288 285 278 273 272 274 274 274 273 268 262 263 266 268 271 276 284 293 297 298 301 306 310 311 312
Height
1532 1534 1536 1538 1539 1541 1543 1544 1546 1548 1549 1550 1552 1553 1554 1556 1557 1558 1559 1560 1561 1562 1562 1563 1563 1564 1565 1566 1566 1567 1568 1568 1569 1570 1571 1571 1571 1571 1572 1572 1572 1572 1572 1572 1572 1572 1573 1573 1574 1574 1575 1575 1575 1575 1575 1574 1574 1574 1574 1573 1573 1573 1572 1571 1571 1571 1571 1571 1571 1571 1570 1570 1570 1570 1570 1570 1569 1569 1568 1568 1568 1567 1567 1566 1566
1530 1532 1534 1536 1537 1539 1541 1542 1543 1545 1546 1548 1549 1550 1552 1554 1555 1556 1557 1558 1559 1560 1561 1561 1562 1562 1563 1564 1565 1566 1567 1567 1567 1568 1569 1569 1569 1570 1570 1570 1571 1571 1571 1571 1571 1571 1572 1572 1573 1574 1574 1574 1574 1574 1573 1573 1573 1573 1573 1573 1572 1572 1571 1571 1571 1571 1571 1571 1571 1571 1571 1570 1570 1570 1570 1570 1569 1569 1568 1568 1567 1567 1567 1566 1566
1526 1528 1531 1533 1535 1537 1538 1540 1541 1543 1544 1546 1547 1549 1550 1551 1552 1554 1555 1556 1557 1558 1559 1559 1560 1562 1563 1563 1564 1565 1565 1566 1566 1566 1567 1567 1567 1568 1568 1569 1569 1569 1569 1570 1570 1570 1571 1571 1572 1573 1573 1573 1573 1572 1572 1572 1571 1571 1572 1572 1572 1571 1571 1570 1570 1570 1571 1570 1571 1571 1571 1571 1571 1571 1571 1570 1570 1569 1568 1568 1568 1567 1567 1566 1565
1523 1525 1527 1529 1532 1533 1535 1537 1538 1540 1542 1543 1545 1546 1548 1549 1550 1551 1553 1554 1555 1556 1557 1558 1560 1561 1561 1562 1562 1563 1563 1564 1564 1564 1564 1565 1565 1566 1566 1567 1567 1568 1568 1568 1569 1569 1569 1570 1571 1572 1572 1571 1571 1571 1570 1570 1571 1571 1571 1571 1571 1571 1570 1570 1570 1570 1570 1570 1570 1571 1571 1571 1571 1571 1571 1570 1570 1570 1569 1568 1568 1567 1567 1566 1566
1519 1521 1523 1525 1527 1530 1531 1533 1535 1537 1539 1540 1542 1544 1545 1546 1548 1549 1550 1551 1552 1554 1556 1557 1558 1559 1559 1560 1560 1560 1561 1561 1561 1561 1562 1563 1563 1564 1564 1565 1566 1566 1566 1567 1567 1568 1568 1569 1570 1570 1570 1570 1569 1569 1569 1570 1570 1570 1570 1570 1570 1570 1570 1569 1569 1569 1569 1569 1569 1570 1570 1570 1571 1571 1571 1571 1570 1570 1569 1569 1568 1567 1567 1566 1566
1515 1517 1520 1522 1523 1526 1528 1530 1532 1534 1535 1537 1539 1541 1543 1544 1546 1547 1548 1549 1550 1552 1554 1555 1556 1556 1557 1557 1557 1558 1558 1558 1559 1559 1560 1561 1562 1563 1563 1564 1564 1565 1565 1565 1566 1566 1567 1567 1567 1568 1568 1568 1568 1568 1568 1568 1568 1568 1568 1568 1569 1569 1568 1568 1568 1568 1568 1568 1568 1568 1569 1569 1570 1570 1570 1570 1570 1570 1569 1569 1568 1567 1567 1566 1566
1512 1514 1516 1518 1520 1523 1524 1526 1528 1530 1532 1535 1537 1539 1540 1542 1543 1544 1546 1546 1548 1550 1551 1553 1553 1554 1555 1555 1555 1556 1556 1556 1557 1559 1559 1560 1561 1561 1562 1562 1563 1563 1564 1564 1564 1565 1565 1565 1566 1566 1566 1566 1566 1566 1567 1567 1567 1567 1567 1567 1567 1567 1567 1567 1567 1567 1567 1567 1567 1567 1568 1568 1568 1569 1569 1569 1569 1569 1569 1569 1568 1567 1567 1566 1565
1508 1510 1513 1515 1516 1518 1520 1522 1524 1527 1529 1532 1534 1535 1537 1539 1541 1542 1543 1544 1545 1547 1548 1550 1550 1551 1552 1553 1554 1554 1555 1556 1557 1558 1558 1559 1560 1560 1560 1561 1561 1562 1562 1562 1563 1563 1563 1564 1564 1564 1565 1565 1565 1565 1566 1566 1566 1566 1566 1566 1566 1567 1567 1567 1567 1566 1567 1566 1567 1567 1567 1567 1567 1567 1568 1568 1568 1568 1569 1569 1568 1567 1567 1566 1565
1503 1506 1508 1511 1513 1515 1517 1519 1522 1524 1527 1528 1530 1533 1535 1536 1538 1539 1540 1541 1542 1544 1546 1547 1548 1549 1550 1550 1551 1552 1553 1555 1556 1556 1557 1558 1558 1558 1559 1559 1560 1560 1560 1561 1561 1562 1562 1563 1563 1563 1564 1564 1564 1564 1565 1565 1566 1566 1566 1566 1566 1566 1566 1566 1566 1566 1566 1566 1566 1566 1566 1567 1567 1567 1567 1567 1567 1567 1568 1568 1568 1567 1567 1566 1565
1499 1502 1504 1507 1509 1512 1515 1517 1520 1522 1524 1526 1528 1530 1532 1533 1535 1536 1537 1538 1539 1541 1542 1544 1545 1546 1547 1548 1549 1550 1552 1553 1554 1555 1555 1556 1556 1557 1557 1558 1558 1558 1559 1559 1560 1560 1561 1561 1562 1562 1562 1563 1563 1563 1564 1564 1565 1565 1565 1565 1565 1565 1565 1565 1565 1566 1566 1566 1566 1566 1566 1567 1567 1567 1567 1567 1567 1567 1566 1566 1566 1566 1566 1565 1565
1495 1498 1500 1503 1506 1509 1512 1515 1517 1519 1521 1523 1525 1526 1528 1530 1532 1533 1534 1535 1536 1538 1540 1541 1542 1543 1544 1545 1547 1549 1550 1551 1552 1552 1553 1554 1554 1555 1555 1556 1556 1556 1557 1557 1558 1559 1559 1560 1560 1561 1561 1561 1562 1562 1563 1564 1564 1564 1564 1564 1564 1565 1565 1565 1565 1565 1565 1566 1566 1566 1566 1566 1567 1567 1567 1567 1566 1566 1565 1565 1565 1565 1564 1564 1564
1491 1494 1496 1499 1502 1505 1508 1510 1513 1515 1517 1519 1521 1523 1525 1527 1528 1530 1531 1532 1533 1535 1537 1538 1539 1540 1542 1543 1545 1547 1548 1549 1550 1551 1551 1552 1553 1553 1553 1554 1554 1554 1555 1555 1556 1557 1557 1558 1559 1559 1560 1560 1561 1561 1562 1562 1563 1563 1563 1563 1564 1564 1564 1564 1564 1564 1565 1565 1565 1565 1566 1566 1566 1566 1566 1566 1566 1565 1564 1564 1564 1563 1562 1562 1562
1486 1489 1492 1494 1497 1500 1503 1505 1508 1510 1512 1515 1517 1519 1521 1523 1525 1527 1528 1529 1530 1532 1534 1535 1536 1538 1539 1541 1543 1544 1546 1547 1548 1548 1549 1550 1551 1551 1551 1551 1551 1552 1552 1553 1553 1554 1555 1556 1557 1558 1558 1559 1559 1560 1560 1561 1561 1561 1562 1562 1563 1563 1563 1563 1564 1564 1564 1564 1564 1564 1564 1565 1565 1565 1565 1565 1565 1564 1563 1563 1562 1562 1561 1561 1560
1481 1483 1486 1489 1491 1494 1497 1500 1503 1505 1508 1511 1513 1516 1518 1520 1522 1523 1524 1526 1527 1529 1531 1532 1533 1535 1537 1538 1540 1542 1543 1544 1545 1546 1547 1548 1548 1548 1549 1549 1549 1549 1550 1551 1552 1553 1554 1555 1555 1556 1557 1557 1558 1558 1559 1559 1559 1560 1561 1561 1562 1563 1563 1563 1563 1563 1563 1563 1563 1563 1563 1563 1564 1564 1564 1564 1563 1563 1562 1561 1561 1560 1560 1559 1558
1477 1479 1482 1484 1486 1490 1492 1495 1498 1501 1504 1507 1509 1512 1514 1516 1518 1519 1521 1523 1524 1526 1528 1529 1531 1532 1534 1535 1537 1538 1539 1541 1542 1543 1544 1545 1545 1546 1546 1547 1547 1548 1548 1549 1550 1551 1553 1553 1554 1554 1555 1555 1556 1557 1557 1557 1558 1558 1559 1560 1561 1562 1562 1562 1562 1562 1562 1562 1562 1562 1562 1562 1562 1562 1562 1562 1562 1562 1561 1560 1559 1559 1558 1557 1557
1472 1475 1477 1479 1482 1485 1487 1490 1494 1497 1501 1503 1505 1508 1510 1512 1514 1515 1517 1519 1521 1523 1524 1526 1528 1529 1531 1532 1534 1535 1536 1538 1539 1540 1541 1542 1543 1543 1544 1545 1546 1547 1548 1548 1549 1549 1550 1551 1551 1552 1553 1554 1554 1555 1556 1556 1557 1557 1558 1559 1560 1561 1561 1561 1561 1561 1561 1561 1561 1560 1560 1560 1560 1559 1559 1559 1559 1559 1559 1559 1558 1557 1556 1555 1555
1466 1468 1471 1474 1477 1480 1482 1486 1490 1493 1496 1499 1501 1504 1506 1507 1509 1511 1514 1516 1518 1519 1521 1523 1525 1526 1527 1529 1530 1531 1533 1535 1536 1537 1538 1540 1540 1541 1542 1543 1544 1545 1546 1547 1548 1548 1548 1548 1549 1550 1551 1552 1553 1553 1554 1555 1555 1556 1556 1557 1558 1559 1560 1560 1560 1560 1560 1560 1559 1559 1558 1558 1558 1557 1557 1557 1557 1557 1557 1556 1556 1555 1555 1554 1553
1460 1461 1465 1468 1471 1474 1477 1481 1485 1488 1491 1494 1497 1499 1502 1504 1506 1508 1510 1512 1514 1516 1517 1520 1521 1523 1524 1525 1527 1528 1530 1532 1533 1535 1537 1538 1539 1539 1541 1542 1543 1544 1545 1545 1546 1546 1546 1546 1547 1548 1549 1550 1551 1552 1553 1553 1554 1554 1555 1556 1557 1557 1558 1558 1559 1559 1559 1558 1558 1557 1556 1556 1556 1555 1555 1555 1554 1554 1554 1554 1553 1553 1553 1552 1551
1455 1457 1461 1463 1466 1469 1472 1476 1480 1483 1487 1490 1493 1496 1498 1500 1503 1505 1506 1509 1511 1513 1514 1516 1517 1518 1520 1521 1524 1526 1528 1529 1531 1533 1534 1536 1537 1538 1539 1540 1541 1542 1542 1543 1544 1544 1545 1545 1546 1547 1548 1549 1550 1550 1551 1551 1552 1552 1553 1554 1554 1555 1555 1556 1557 1557 1557 1556 1556 1555 1555 1554 1554 1553 1553 1552 1552 1552 1552 1551 1551 1551 1550 1549 1549
1451 1453 1456 1457 1460 1464 1467 1472 1475 1478 1482 1485 1489 1492 1494 1497 1499 1500 1502 1505 1507 1509 1510 1511 1513 1514 1516 1519 1522 1524 1526 1527 1529 1531 1532 1533 1535 1537 1539 1540 1540 1541 1541 1541 1541 1542 1543 1544 1545 1546 1547 1548 1549 1549 1549 1550 1550 1550 1550 1551 1551 1552 1552 1553 1554 1554 1554 1554 1554 1553 1553 1552 1552 1551 1550 1550 1550 1550 1550 1549 1549 1549 1548 1547 1546
1446 1448 1450 1452 1456 1460 1464 1468 1472 1475 1478 1481 1485 1488 1490 1493 1494 1496 1498 1500 1502 1504 1506 1508 1510 1511 1514 1516 1519 1521 1522 1525 1527 1529 1530 1532 1535 1537 1538 1539 1540 1540 1540 1540 1541 1541 1542 1543 1544 1545 1546 1547 1547 1548 1548 1548 1549 1548 1548 1548 1549 1549 1550 1550 1551 1552 1552 1552 1552 1552 1551 1550 1550 1549 1549 1548 1548 1548 1547 1547 1547 1546 1546 1545 1544
1441 1443 1446 1449 1452 1456 1460 1464 1468 1471 1474 1477 1480 1483 1486 1488 1490 1492 1494 1495 1498 1500 1502 1504 1506 1508 1511 1513 1515 1517 1519 1522 1524 1527 1529 1531 1533 1534 1535 1535 1537 1538 1538 1539 1540 1540 1541 1541 1542 1543 1544 1545 1545 1546 1547 1547 1547 1547 1547 1546 1547 1547 1547 1548 1549 1550 1550 1550 1550 1550 1549 1549 1548 1548 1547 1547 1546 1546 1545 1545 1545 1544 1543 1543 1542
1438 1440 1443 1446 1448 1453 1457 1460 1463 1466 1469 1473 1476 1479 1481 1484 1486 1488 1490 1492 1495 1497 1499 1501 1502 1505 1508 1510 1512 1514 1517 1520 1523 1526 1527 1528 1530 1531 1531 1531 1532 1534 1536 1537 1538 1538 1539 1540 1540 1541 1541 1542 1543 1544 1545 1545 1545 1545 1545 1545 1545 1545 1545 1546 1547 1548 1548 1548 1548 1548 1547 1547 1546 1546 1545 1545 1544 1543 1543 1542 1542 1541 1541 1540 1539
1436 1438 1441 1443 1446 1450 1453 1456 1459 1462 1466 1469 1472 1474 1477 1480 1482 1484 1486 1489 1492 1494 1496 1497 1499 1502 1504 1506 1508 1511 1515 1520 1523 1524 1524 1526 1528 1529 1530 1530 1530 1531 1532 1534 1535 1537 1538 1538 1538 1539 1539 1540 1541 1541 1542 1542 1543 1544 1544 1544 1543 1544 1544 1544 1545 1545 1546 1546 1546 1546 1546 1545 1545 1544 1544 1543 1542 1541 1541 1540 1539 1539 1538 1537 1536
1434 1436 1438 1440 1443 1445 1449 1452 1455 1459 1463 1466 1468 1471 1473 1476 1478 1481 1484 1487 1489 1491 1492 1493 1496 1498 1500 1503 1505 1507 1513 1518 1519 1518 1519 1523 1526 1527 1529 1530 1530 1530 1531 1532 1533 1534 1535 1536 1536 1537 1538 1538 1539 1539 1540 1540 1541 1542 1542 1542 1542 1542 1542 1543 1543 1543 1544 1544 1544 1544 1544 1544 1543 1543 1542 1541 1540 1539 1538 1537 1536 1536 1535 1534 1533
1431 1433 1435 1437 1439 1442 1445 1448 1452 1456 1459 1462 1465 1467 1470 1472 1475 1478 1480 1483 1485 1487 1488 1489 1492 1494 1497 1499 1500 1502 1507 1511 1511 1512 1514 1518 1521 1524 1527 1528 1528 1528 1529 1530 1531 1531 1532 1533 1534 1535 1536 1537 1537 1538 1538 1538 1540 1540 1541 1541 1541 1541 1541 1541 1541 1541 1541 1542 1542 1542 1542 1542 1541 1541 1540 1539 1538 1537 1535 1534 1533 1533 1532 1531 1530
1429 1431 1433 1435 1436 1439 1442 1446 1449 1452 1456 1459 1461 1464 1467 1469 1471 1475 1477 1479 1481 1482 1483 1485 1488 1491 1492 1494 1493 1493 1496 1500 1502 1504 1507 1511 1514 1518 1521 1524 1525 1525 1524 1525 1527 1529 1530 1530 1532 1533 1534 1535 1536 1536 1536 1537 1538 1539 1539 1540 1540 1540 1539 1539 1539 1539 1539 1539 1540 1540 1540 1540 1539 1539 1538 1537 1535 1534 1533 1532 1531 1530 1529 1528 1526
1427 1429 1430 1432 1433 1436 1440 1443 1447 1450 1453 1456 1459 1461 1464 1466 1469 1472 1474 1475 1477 1478 1480 1482 1484 1487 1487 1486 1485 1484 1487 1491 1494 1498 1503 1506 1509 1514 1516 1519 1520 1521 1520 1520 1522 1525 1528 1529 1530 1531 1533 1534 1535 1535 1535 1536 1536 1537 1537 1538 1538 1538 1537 1537 1537 1537 1537 1537 1537 1537 1537 1537 1537 1537 1536 1535 1533 1532 1530 1529 1528 1527 1526 1525 1524
1424 1426 1426 1428 1430 1433 1437 1441 1444 1447 1450 1453 1456 1459 1461 1463 1466 1468 1470 1472 1473 1474 1476 1479 1481 1482 1482 1481 1480 1481 1483 1486 1489 1496 1505 1507 1509 1513 1515 1516 1517 1517 1517 1517 1517 1520 1524 1527 1529 1530 1532 1533 1533 1533 1534 1534 1535 1535 1535 1535 1535 1535 1535 1535 1535 1534 1534 1534 1534 1535 1535 1535 1535 1534 1533 1532 1531 1529 1528 1527 1526 1525 1524 1522 1521
1420 1421 1422 1425 1428 1431 1435 1438 1441 1444 1447 1450 1453 1455 1458 1460 1463 1465 1467 1469 1471 1471 1473 1476 1478 1478 1477 1478 1478 1479 1481 1482 1485 1492 1502 1508 1511 1514 1514 1514 1513 1513 1513 1513 1513 1515 1519 1524 1527 1529 1530 1531 1532 1532 1533 1533 1533 1533 1533 1533 1533 1533 1533 1533 1533 1532 1532 1532 1532 1532 1532 1532 1532 1531 1530 1529 1528 1527 1525 1524 1523 1522 1521 1520 1518
1417 1418 1419 1422 1426 1429 1432 1435 1438 1441 1444 1447 1450 1452 1455 1457 1460 1461 1463 1466 1468 1469 1471 1473 1474 1474 1474 1475 1476 1477 1477 1480 1481 1485 1494 1503 1509 1510 1509 1507 1507 1508 1508 1508 1508 1509 1514 1520 1524 1527 1529 1530 1531 1531 1532 1532 1532 1532 1532 1532 1531 1531 1531 1531 1530 1530 1530 1529 1529 1529 1529 1529 1529 1528 1527 1526 1525 1524 1522 1521 1520 1519 1518 1517 1516
1414 1415 1416 1420 1424 1426 1429 1432 1435 1438 1442 1444 1447 1449 1452 1454 1457 1460 1462 1464 1466 1467 1468 1470 1471 1471 1472 1473 1474 1475 1477 1479 1482 1485 1490 1494 1497 1499 1499 1498 1500 1501 1502 1504 1504 1505 1510 1517 1521 1525 1527 1528 1529 1530 1531 1531 1531 1531 1531 1530 1529 1529 1529 1529 1529 1528 1527 1527 1526 1526 1526 1526 1526 1525 1524 1523 1522 1521 1520 1518 1517 1516 1515 1515 1514
1410 1411 1413 1417 1420 1423 1427 1430 1433 1436 1439 1442 1444 1447 1450 1453 1456 1458 1460 1461 1463 1464 1465 1467 1468 1469 1469 1470 1472 1474 1477 1478 1479 1481 1484 1485 1486 1488 1490 1491 1495 1497 1499 1502 1502 1503 1508 1515 1519 1522 1524 1525 1527 1528 1529 1529 1529 1529 1529 1528 1528 1527 1527 1527 1526 1525 1524 1523 1523 1522 1522 1522 1523 1522 1521 1520 1519 1518 1517 1516 1515 1514 1512 1511 1510
1407 1408 1411 1415 1419 1422 1425 1428 1432 1434 1437 1440 1443 1446 1449 1451 1453 1455 1457 1458 1460 1461 1463 1464 1465 1466 1467 1468 1470 1471 1473 1474 1474 1475 1478 1481 1483 1484 1485 1488 1491 1493 1496 1499 1500 1502 1507 1513 1517 1519 1521 1522 1523 1525 1526 1527 1527 1527 1527 1526 1526 1525 1525 1524 1523 1522 1521 1520 1519 1519 1519 1519 1519 1519 1518 1517 1516 1515 1514 1513 1512 1511 1509 1508 1507
1407 1408 1411 1414 1416 1419 1422 1426 1429 1432 1436 1440 1442 1444 1447 1449 1450 1452 1454 1455 1457 1459 1460 1461 1462 1463 1464 1465 1466 1468 1468 1470 1471 1472 1474 1477 1478 1480 1482 1485 1485 1487 1491 1494 1496 1500 1506 1510 1512 1514 1516 1518 1519 1521 1524 1525 1525 1524 1524 1523 1523 1522 1522 1521 1520 1519 1518 1517 1516 1516 1516 1516 1516 1515 1514 1513 1513 1512 1511 1510 1509 1508 1507 1505 1504
1405 1409 1411 1413 1414 1417 1421 1425 1428 1432 1436 1438 1440 1443 1445 1446 1448 1449 1451 1453 1455 1456 1458 1459 1460 1461 1461 1462 1463 1464 1465 1467 1469 1469 1470 1472 1473 1476 1479 1480 1480 1483 1486 1489 1492 1496 1500 1505 1508 1510 1512 1514 1515 1518 1520 1521 1521 1522 1521 1520 1520 1519 1518 1517 1516 1515 1515 1514 1513 1513 1513 1513 1513 1512 1511 1510 1510 1509 1508 1507 1506 1505 1503 1502 1500
1404 1407 1410 1413 1416 1419 1422 1425 1429 1432 1435 1437 1439 1441 1443 1444 1446 1448 1450 1452 1453 1454 1456 1457 1458 1459 1459 1460 1461 1462 1463 1464 1465 1466 1468 1468 1468 1471 1472 1472 1474 1478 1480 1484 1488 1491 1495 1500 1504 1506 1508 1510 1512 1514 1516 1516 1518 1519 1518 1517 1517 1516 1515 1514 1513 1512 1511 1511 1510 1510 1510 1510 1509 1509 1508 1507 1506 1505 1504 1503 1502 1501 1500 1498 1497
1402 1405 1408 1413 1417 1419 1422 1425 1428 1431 1434 1436 1439 1440 1441 1443 1445 1447 1449 1450 1452 1453 1454 1455 1456 1457 1457 1458 1459 1460 1461 1462 1463 1464 1465 1465 1466 1467 1467 1467 1470 1473 1476 1481 1485 1488 1491 1495 1498 1502 1505 1507 1509 1511 1512 1512 1513 1514 1514 1514 1513 1512 1512 1511 1510 1509 1508 1508 1507 1507 1507 1507 1506 1505 1505 1504 1503 1502 1501 1500 1499 1498 1496 1495 1494
1401 1403 1407 1411 1415 1418 1421 1425 1428 1431 1433 1435 1437 1438 1440 1442 1444 1446 1448 1449 1450 1451 1453 1454 1455 1455 1456 1456 1457 1458 1459 1460 1461 1461 1463 1464 1465 1466 1466 1467 1470 1474 1476 1479 1482 1484 1488 1492 1496 1499 1503 1505 1507 1508 1509 1509 1510 1510 1511 1510 1509 1508 1508 1508 1507 1506 1505 1505 1504 1504 1504 1503 1503 1502 1501 1501 1500 1499 1498 1497 1496 1494 1493 1492 1491
1401 1404 1407 1411 1414 1418 1421 1424 1427 1430 1433 1434 1436 1437 1439 1441 1443 1445 1446 1448 1449 1450 1451 1452 1453 1453 1454 1455 1455 1456 1457 1458 1458 1459 1459 1460 1462 1465 1467 1469 1471 1474 1477 1479 1481 1485 1489 1492 1495 1498 1501 1503 1504 1504 1505 1505 1506 1507 1507 1506 1505 1504 1504 1505 1504 1504 1503 1502 1501 1501 1500 1500 1499 1499 1498 1497 1497 1496 1495 1494 1493 1491 1490 1489 1488
1404 1407 1409 1412 1415 1418 1421 1424 1427 1429 1431 1433 1435 1436 1439 1441 1442 1444 1445 1447 1449 1449 1450 1451 1451 1452 1452 1453 1454 1454 1455 1455 1456 1456 1457 1458 1461 1464 1467 1469 1471 1474 1477 1480 1483 1486 1489 1492 1494 1496 1498 1500 1501 1501 1501 1503 1503 1503 1502 1501 1500 1499 1500 1501 1501 1501 1500 1499 1498 1498 1497 1497 1496 1495 1495 1494 1494 1493 1492 1491 1490 1489 1488 1487 1486
1407 1410 1412 1413 1415 1418 1421 1424 1426 1428 1430 1432 1434 1436 1438 1440 1441 1443 1445 1447 1448 1449 1449 1449 1450 1450 1451 1451 1452 1452 1452 1453 1453 1454 1455 1457 1460 1464 1466 1468 1471 1474 1477 1480 1483 1486 1488 1490 1492 1494 1495 1496 1497 1497 1498 1499 1500 1499 1498 1497 1496 1496 1497 1498 1498 1498 1498 1497 1496 1495 1494 1494 1493 1492 1492 1492 1491 1490 1489 1488 1487 1486 1485 1484 1483
1407 1409 1412 1414 1416 1419 1422 1424 1426 1428 1430 1432 1434 1436 1437 1439 1440 1441 1443 1445 1447 1448 1448 1448 1448 1449 1449 1449 1450 1450 1450 1451 1451 1453 1455 1457 1460 1463 1465 1468 1471 1474 1477 1479 1482 1485 1487 1489 1490 1491 1492 1492 1493 1493 1494 1494 1495 1495 1494 1494 1494 1494 1495 1495 1495 1495 1494 1494 1493 1492 1491 1491 1490 1490 1489 1489 1488 1487 1486 1485 1484 1483 1482 1481 1480
1406 1409 1411 1414 1417 1420 1423 1425 1427 1428 1430 1432 1434 1436 1437 1438 1439 1441 1442 1444 1445 1446 1447 1447 1447 1447 1448 1448 1448 1448 1449 1449 1450 1452 1455 1457 1460 1463 1466 1468 1471 1474 1476 1479 1481 1484 1485 1486 1487 1487 1488 1489 1490 1490 1490 1491 1492 1492 1492 1492 1492 1492 1493 1493 1493 1492 1492 1491 1491 1490 1489 1488 1487 1487 1487 1486 1485 1484 1484 1483 1482 1481 1480 1479 1477
1409 1411 1412 1414 1416 1419 1423 1426 1428 1429 1430 1432 1435 1436 1438 1439 1440 1441 1442 1443 1444 1445 1445 1445 1446 1446 1447 1447 1448 1448 1448 1449 1450 1452 1455 1457 1459 1462 1465 1468 1470 1473 1475 1477 1479 1480 1481 1482 1483 1484 1485 1486 1486 1487 1488 1488 1489 1490 1490 1490 1490 1491 1491 1491 1490 1489 1489 1488 1487 1486 1486 1485 1485 1485 1484 1483 1483 1482 1481 1480 1479 1479 1478 1476 1475
1413 1414 1415 1416 1417 1419 1422 1425 1427 1429 1430 1432 1435 1437 1438 1439 1440 1441 1442 1442 1443 1443 1443 1444 1444 1445 1446 1447 1448 1448 1449 1450 1451 1453 1455 1457 1459 1461 1464 1467 1469 1472 1474 1475 1476 1477 1478 1479 1480 1481 1482 1483 1483 1484 1485 1486 1487 1488 1488 1489 1489 1489 1489 1488 1487 1486 1486 1485 1484 1484 1483 1483 1483 1482 1482 1481 1480 1480 1479 1478 1477 1476 1475 1474 1472
1414 1415 1417 1418 1419 1421 1423 1424 1426 1428 1429 1431 1434 1436 1437 1438 1439 1440 1441 1441 1441 1441 1441 1442 1442 1443 1444 1446 1447 1448 1449 1450 1452 1454 1456 1458 1459 1462 1464 1467 1469 1471 1473 1473 1473 1474 1475 1476 1477 1479 1480 1481 1481 1482 1483 1484 1486 1486 1487 1487 1487 1487 1486 1485 1484 1484 1483 1483 1482 1481 1481 1481 1480 1480 1479 1479 1478 1478 1477 1476 1475 1474 1472 1471 1469
1415 1416 1417 1418 1420 1422 1423 1424 1424 1426 1428 1430 1432 1433 1434 1435 1436 1438 1439 1439 1439 1439 1439 1440 1440 1441 1443 1445 1446 1447 1448 1450 1453 1455 1457 1458 1460 1462 1464 1466 1468 1470 1471 1471 1472 1472 1473 1474 1476 1477 1478 1478 1480 1481 1482 1483 1484 1485 1485 1485 1485 1484 1484 1483 1482 1481 1481 1480 1480 1479 1479 1478 1478 1477 1477 1477 1476 1476 1475 1474 1473 1471 1470 1468 1467
1416 1417 1418 1419 1420 1421 1422 1422 1423 1425 1427 1428 1429 1430 1430 1432 1434 1436 1438 1438 1437 1437 1438 1439 1439 1440 1442 1444 1445 1447 1448 1451 1453 1455 1457 1459 1460 1462 1463 1465 1467 1468 1469 1470 1470 1471 1472 1473 1474 1474 1475 1476 1478 1479 1480 1481 1482 1482 1483 1482 1482 1482 1481 1480 1480 1479 1479 1478 1478 1477 1477 1476 1476 1476 1476 1475 1475 1474 1473 1472 1470 1469 1468 1466 1465
1417 1418 1418 1419 1419 1419 1420 1421 1423 1425 1427 1428 1428 1429 1430 1431 1433 1435 1436 1436 1435 1436 1437 1439 1439 1440 1442 1443 1445 1446 1448 1450 1453 1455 1457 1459 1460 1461 1462 1463 1465 1467 1468 1469 1469 1469 1470 1471 1471 1472 1473 1474 1476 1477 1478 1479 1479 1480 1480 1480 1480 1479 1478 1478 1477 1477 1477 1477 1476 1476 1476 1475 1475 1475 1475 1475 1474 1472 1471 1470 1468 1467 1466 1465 1464
1418 1418 1418 1418 1418 1418 1420 1422 1423 1425 1426 1427 1427 1428 1429 1431 1432 1433 1434 1434 1434 1435 1437 1438 1439 1441 1442 1443 1445 1446 1448 1450 1452 1454 1456 1458 1459 1460 1461 1463 1465 1466 1467 1467 1467 1467 1468 1469 1470 1470 1471 1472 1474 1475 1476 1477 1477 1477 1478 1477 1477 1477 1476 1475 1475 1475 1475 1475 1475 1475 1475 1475 1474 1474 1474 1473 1472 1470 1469 1468 1466 1465 1464 1463 1462